This is the latest recevied weather packets stored in our database for station/object W2JGA. If no packets are shown the sender has not sent any weather packets the latest 10 day(s).
| Time | Temp. | Humidity | Pressure | Rain* | Wind** | Luminosity | Snow |
|---|---|---|---|---|---|---|---|
| 1777837657 | 29.44° C | 33% | 1014.7 hPa | 0 mm | - | 367 W/m² | - |
| 1777837352 | 29.44° C | 33% | 1014.7 hPa | 0 mm | - | 352 W/m² | - |
| 1777837049 | 29.44° C | 33% | 1014.7 hPa | 0 mm | - | 353 W/m² | - |
| 1777836745 | 30° C | 33% | 1015 hPa | 0 mm | - | 361 W/m² | - |
| 1777836441 | 29.44° C | 32% | 1015 hPa | 0 mm | - | 369 W/m² | - |
| 1777836136 | 29.44° C | 33% | 1015 hPa | 0 mm | - | 400 W/m² | - |
| 1777835833 | 29.44° C | 33% | 1015 hPa | 0 mm | - | 369 W/m² | - |
| 1777835530 | 29.44° C | 33% | 1015 hPa | 0 mm | - | 352 W/m² | - |
| 1777835227 | 29.44° C | 33% | 1015 hPa | 0 mm | - | 395 W/m² | - |
| 1777834924 | 29.44° C | 34% | 1015 hPa | 0 mm | - | 380 W/m² | - |
| 1777834621 | 28.89° C | 34% | 1015.4 hPa | 0 mm | - | 406 W/m² | - |
| 1777834316 | 28.89° C | 34% | 1015.4 hPa | 0 mm | - | 354 W/m² | - |
| 1777834011 | 28.33° C | 35% | 1015.8 hPa | 0 mm | - | 339 W/m² | - |
| 1777833708 | 28.33° C | 36% | 1015.8 hPa | 0 mm | - | 313 W/m² | - |
| 1777833404 | 28.33° C | 36% | 1015.8 hPa | 0 mm | - | 297 W/m² | - |
| 1777833102 | 28.33° C | 36% | 1015.8 hPa | 0 mm | - | 299 W/m² | - |
| 1777832800 | 27.78° C | 36% | 1016.1 hPa | 0 mm | - | 284 W/m² | - |
| 1777832498 | 27.78° C | 36% | 1015.8 hPa | 0 mm | - | 284 W/m² | - |
| 1777832189 | 27.22° C | 37% | 1016.1 hPa | 0 mm | - | 276 W/m² | - |
| 1777831886 | 27.22° C | 37% | 1016.1 hPa | 0 mm | - | 268 W/m² | - |
| 1777831583 | 27.22° C | 37% | 1016.1 hPa | 0 mm | - | 270 W/m² | - |
| 1777831281 | 27.22° C | 37% | 1016.5 hPa | 0 mm | - | 299 W/m² | - |
| 1777830977 | 27.22° C | 37% | 1016.5 hPa | 0 mm | - | 320 W/m² | - |
| 1777830674 | 26.67° C | 38% | 1016.1 hPa | 0 mm | - | 327 W/m² | - |
| 1777830371 | 26.67° C | 38% | 1016.5 hPa | 0 mm | - | 269 W/m² | - |
* Rain latest hour (hover to see other rain measurements)
** Current wind speed in m/s (hover to see current wind gust speed)